Location: ?????????
(54.7630°N, 39.4991°E)
Time: 21:25:36
(UTC+00:00)

Cosmos 1315 Rocket - Pass Details

Date: 14 April 2026
Orbit: 490 x 510 km, 81.2° (Epoch: 11 May)

Event Time Altitude Azimuth Distance (km) Brightness Sun altitude
Exits shadow 19:41:07 42° 59° (ENE) 729 3.4 -22.2°
Drops below altitude 10° 19:44:02 10° 23° (NNE) 1,725 5.9 -22.4°
Sets 19:46:11 0° 18° (NNE) 2,611 7.0 -22.5°
